Regional Weather Roundup
Issued by NWS Glasgow, MT

Home | Current Version | Previous Version | Text Only | Print | Product List | Glossary On
Versions: 1 2 3 4 5 6 7 8 9 10 11 12 13 14 15 16 17 18 19 20 21 22 23 24 25 26 27
000
ASUS45 KGGW 240115
RWRGGW
HOURLY WEATHER ROUNDUP FOR NORTHEAST MONTANA
NATIONAL WEATHER SERVICE GLASGOW MONTANA
700 PM MDT WED APR 23 2014

NOTE: "FAIR" INDICATES FEW OR NO CLOUDS BELOW 12,000 FEET WITH NO
SIGNIFICANT WEATHER AND/OR OBSTRUCTIONS TO VISISBILITY.

NORTHEAST MONTANA


CITY           SKY/WX    TMP DP  RH WIND       PRES   REMARKS
GLASGOW        MOSUNNY   58  20  22 W21G37    29.56R
PLENTYWOOD       N/A     48  40  73 NW3         N/A
WOLF POINT     MOCLDY    61  18  18 W24       29.58R
JORDAN           N/A     55  17  22 W15       29.64R
WINNETT          N/A     53  22  29 W15         N/A
SIDNEY         PTCLDY    57  25  28 W14G23    29.62R
GLENDIVE       PTCLDY    55  21  26 W13G18    29.65S

FORT PECK REPORTS


CITY           SKY/WX    TMP DP  RH WIND       PRES   REMARKS
FORT PECK        N/A     57  21  24 W26G36      N/A
THE PINES        N/A     59  18  20 W12         N/A

SOUTHEAST MONTANA


CITY           SKY/WX    TMP DP  RH WIND       PRES   REMARKS
BILLINGS       MOSUNNY   51  16  24 W26G33    29.76R
MILES CITY     CLOUDY    56  19  23 W14       29.68R
BAKER          PTCLDY    53  30  41 W18       29.68S
LIVINGSTON     MOSUNNY   47  20  34 W29G35    29.78S

CENTRAL MONTANA


CITY           SKY/WX    TMP DP  RH WIND       PRES   REMARKS
HAVRE          PTSUNNY   53  23  31 W26G35    29.61R
LEWISTOWN      CLOUDY    46  19  34 W25G32    29.72R
GREAT FALLS    MOSUNNY   43  25  49 SW24G36   29.72R
CUT BANK       MOSUNNY   45  21  38 W26G38    29.65R
HELENA         PTSUNNY   45  25  45 SW17G30   29.79R
BUTTE          CLOUDY    38  23  55 SW9       29.84R
BOZEMAN        MOSUNNY   45  24  43 SW15G24   29.83R

WESTERN MONTANA


CITY           SKY/WX    TMP DP  RH WIND       PRES   REMARKS
MISSOULA       CLOUDY    44  30  57 NW5       29.86R
KALISPELL      NOT AVBL

NORTH DAKOTA


CITY           SKY/WX    TMP DP  RH WIND       PRES   REMARKS
WILLISTON      CLOUDY    55  40  56 CALM      29.58R
DICKINSON      MOCLDY    55  26  32 W20       29.62R
MINOT          LGT RAIN  46  44  93 SW5       29.61R
BISMARCK       CLOUDY    51  40  65 NW12      29.66R

SOUTHERN SASKATCHEWAN


CITY           SKY/WX    TMP DP  RH WIND       PRES   REMARKS
REGINA         LGT RAIN  43  43 100 SW6       29.51S
ESTEVAN        LGT RAIN  45  43  93 W13       29.56R
SWIFT CURRENT  CLOUDY    45  41  87 W15G21    29.50S




USA.gov is the U.S. government's official web portal to all federal, state and local government web resources and services.